Flag for Germany Weather past 2 weeks in Meiningen, Thuringia, Germany

Now
58 °F

Passing clouds.


Feels Like: 58 °F
Forecast: 53 / 81 °F
Wind: 2 mph from Northwest

Location: Meiningen

Current Time: Jul 25, 2014 at 4:21:14 AM

Latest Report: Jul 25, 2014 at 4:00 AM


Visibility: 13 mi

Pressure: 29.95 "Hg

Humidity: 92%

Dew point: 56 °F

Location of MeiningenLocation

Historic Weather in Meiningen — Graph

°F

Meiningen temperature yesterday

Maximum temperature yesterday: 73 °F (at 4:00 PM)
Minimum temperature yesterday: 59 °F (at 4:00 AM)
Average temperature yesterday: 65 °F

Past Weeks' High & Low Weather Summary

 TemperatureHumidityPressure
High87 °F (Jul 19, 5:00 PM)98% (Jul 12, 2:00 AM)30.19 "Hg (Jul 12, 2:00 AM)
Low51 °F (Jul 13, 7:00 AM)26% (Jul 19, 2:00 PM)29.75 "Hg (Jul 10, 5:00 AM)
Average66 °F70%29.94 "Hg
* Reported Jul 10 3:00 AM — Jul 25 3:00 AM, Meiningen, Weather by CustomWeather, © 2014

Note: Actual official high and low records may vary slightly from our data, if they occured in-between our weather recording intervals... More about our weather records

Advertising

Meiningen weather history for previous 24 hours

 ConditionsComfort  
Time TempWeatherWind HumidityBarometerVisibility
3:00 AM
Jul 25
59 °FPassing clouds.3 mph89%29.95 "Hg14 mi
2:00 AM58 °FClear.5 mph89%29.95 "Hg18 mi
1:00 AM58 °FClear.5 mph87%29.96 "Hg13 mi
12:00 AM59 °FClear.3 mph80%29.96 "Hg19 mi
10:00 PM
Jul 24
61 °FOvercast.3 mph76%29.96 "Hg19 mi
9:00 PM64 °FScattered clouds.6 mph68%29.94 "Hg19 mi
8:00 PM66 °FScattered clouds.7 mph61%29.92 "Hg22 mi
7:00 PM68 °FScattered clouds.7 mph60%29.91 "Hg22 mi
6:00 PM70 °FPassing clouds.9 mph55%29.90 "Hg25 mi
4:00 PM73 °FScattered clouds.7 mph47%29.90 "Hg17 mi
3:00 PM71 °FPartly sunny.7 mph48%29.92 "Hg22 mi
2:00 PM73 °FScattered clouds.7 mph48%29.92 "Hg22 mi
1:00 PM71 °FScattered clouds.6 mph55%29.93 "Hg22 mi
12:00 PM70 °FPassing clouds.7 mph50%29.93 "Hg22 mi
10:00 AM66 °FPassing clouds.5 mph66%29.95 "Hg22 mi
9:00 AM63 °FScattered clouds.5 mph72%29.97 "Hg22 mi
8:00 AM61 °FPartly sunny.5 mph77%29.97 "Hg22 mi
7:00 AM59 °FPartly sunny.3 mph79%29.97 "Hg22 mi
6:00 AM59 °FPartly sunny.5 mph80%29.97 "Hg22 mi
5:00 AM59 °FPassing clouds.3 mph77%29.96 "Hg19 mi
4:00 AM59 °FClear.3 mph76%29.96 "Hg19 mi
Weather by CustomWeather, © 2014

See weather overviewHow to use our weather pages